Riverdale, IL (60827)

9:20 PM CST on December 09, 2016 (GMT -0600)
Historic Pullman | | Change Station
Active Advisory: Winter Storm Watch

Elev 623 ft 41.69 °N, 87.61 °W | Updated 11 seconds ago

Partly Cloudy
Partly Cloudy
19.6 °F
Feels Like 20 °F
N
1.7
Wind Variable Wind from NNW

Today
High -- | Low -- °F
--% Chance of Precip.
Yesterday
High -- | Low -- °F
Precip. -- in
Pressure 30.52 in
Visibility 10.0 miles
Clouds Clear
Windchill 20 °F
Dew Point 15 °F
Humidity 81%
Rainfall 0.00 in
Snow Depth Not available.
7:06 AM 4:20 PM
Waxing Gibbous, 79% visible
METAR KIGQ 100315Z AUTO 24003KT 10SM CLR M08/M10 A3052 RMK AO2 T10841102
Pressure 30.52 in
Visibility 10.0 miles
Clouds Clear
Windchill 20 °F
Dew Point 15 °F
Humidity 81%
Rainfall 0.00 in
Snow Depth Not available.
7:06 AM 4:20 PM
Waxing Gibbous, 79% visible
METAR KIGQ 100315Z AUTO 24003KT 10SM CLR M08/M10 A3052 RMK AO2 T10841102

10-Day Weather Forecast

Almanac

Astronomy

Dec. 09, 2016 Rise Set
Actual Time
Civil Twilight
Nautical Twilight
Astronomical Twilight
Moon
Length of Visible Light
Length of Day
Tomorrow will be .
, % of the Moon is Illuminated

Today's Extremes

State Highs State Lows

Community

WunderPhotos

Upload Photos

1,956,532 photos uploaded!

WunderBlog® & News

Nearby

Air Quality

  Air Quality AQ Index Pollutant
Not available.

Snow Depth

Station Depth Elevation

Earthquake Activity

City Distance Mag. Time & Date
Minimum magnitude displayed is 2.5.

Coastal Water Temperatures

Place Temperature

Stations

Nearby Weather Stations

Station Location Temp. Windchill Dew Point Humidity Wind Precip. Elev Updated Type
                   

Watches & Warnings

Winter Storm Watch
Issued: 3:23 PM CST Dec. 9, 2016 – National Weather Service

... Winter Storm Watch remains in effect from Saturday evening
through late Sunday night...

* timing... snow will develop over the area by early Saturday
evening and continue through Sunday evening.

* Snow accumulations... in excess of 6 inches possible.

* Main impact... the potential of snow covered roads and low
visibilities may make travel hazardous.

Precautionary/preparedness actions...

A Winter Storm Watch means there is a potential for significant
snow... sleet... or ice accumulations that may impact travel.
Continue to monitor the latest forecasts.



Kjb